Time,TemperatureF,DewpointF,PressureIn,WindDirection,WindDirectionDegrees,WindSpeedMPH,WindSpeedGustMPH,Humidity,HourlyPrecipIn,Conditions,Clouds,dailyrainin,SoftwareType,DateUTC
2013-02-01 00:15:00,40.3,28.0,30.10,SSW,192,7.0,7.0,61,0.00,,,0.00,weatherlink.com 1.10,2013-02-01 05:15:00,
2013-02-01 00:32:00,40.2,28.0,30.10,WSW,246,2.0,8.0,61,0.00,,,0.00,weatherlink.com 1.10,2013-02-01 05:32:00,
2013-02-01 00:48:00,40.2,28.0,30.10,WSW,245,3.0,11.0,61,0.00,,,0.00,weatherlink.com 1.10,2013-02-01 05:48:00,
2013-02-01 01:00:00,40.5,28.1,30.08,West,275,6.0,11.0,61,0.00,,---,0.00,VWS V14.01,2013-02-01 06:00:00,
2013-02-01 01:05:00,40.2,28.0,30.10,West,276,5.0,16.0,62,0.00,,,0.00,weatherlink.com 1.10,2013-02-01 06:05:00,
2013-02-01 01:21:00,40.4,28.0,30.09,SSW,202,1.0,11.0,61,0.00,,,0.00,weatherlink.com 1.10,2013-02-01 06:21:00,
2013-02-01 01:37:00,40.3,28.0,30.09,West,263,3.0,9.0,61,0.00,,,0.00,weatherlink.com 1.10,2013-02-01 06:37:00,
2013-02-01 01:54:00,40.4,28.0,30.08,West,262,2.0,11.0,61,0.00,,,0.00,weatherlink.com 1.10,2013-02-01 06:54:00,
2013-02-01 02:11:00,40.7,28.0,30.08,SSW,211,4.0,13.0,61,0.00,,,0.00,weatherlink.com 1.10,2013-02-01 07:11:00,
2013-02-01 02:27:00,41.1,28.0,30.08,WSW,244,8.0,13.0,60,0.00,,,0.00,weatherlink.com 1.10,2013-02-01 07:27:00,
2013-02-01 02:43:00,41.7,29.0,30.08,SW,222,8.0,14.0,60,0.00,,,0.00,weatherlink.com 1.10,2013-02-01 07:43:00,
2013-02-01 03:00:00,41.6,28.0,30.08,WNW,300,4.0,9.0,60,0.00,,,0.00,weatherlink.com 1.10,2013-02-01 08:00:00,
2013-02-01 03:16:00,41.5,28.0,30.07,WNW,291,9.0,10.0,58,0.00,,,0.00,weatherlink.com 1.10,2013-02-01 08:16:00,
2013-02-01 03:33:00,41.3,28.0,30.07,NW,323,6.0,10.0,59,0.00,,,0.00,weatherlink.com 1.10,2013-02-01 08:33:00,
2013-02-01 03:49:00,41.1,28.0,30.07,WNW,288,7.0,15.0,59,0.00,,,0.00,weatherlink.com 1.10,2013-02-01 08:49:00,
2013-02-01 04:06:00,41.0,28.0,30.07,WSW,246,8.0,16.0,60,0.00,,,0.00,weatherlink.com 1.10,2013-02-01 09:06:00,
2013-02-01 04:22:00,40.9,28.0,30.07,West,264,4.0,14.0,61,0.00,,,0.00,weatherlink.com 1.10,2013-02-01 09:22:00,
2013-02-01 04:38:00,40.6,28.0,30.06,West,277,10.0,12.0,62,0.00,,,0.00,weatherlink.com 1.10,2013-02-01 09:38:00,
2013-02-01 04:54:00,40.5,29.0,30.06,NW,319,6.0,14.0,64,0.00,,,0.00,weatherlink.com 1.10,2013-02-01 09:54:00,
2013-02-01 05:00:00,39.3,29.3,30.09,WNW,284,12.0,20.0,67,0.00,,---,0.00,VWS V14.01,2013-02-01 10:00:00,
2013-02-01 05:12:00,40.3,29.0,30.07,WNW,286,9.0,13.0,65,0.00,,,0.00,weatherlink.com 1.10,2013-02-01 10:12:00,
2013-02-01 05:28:00,40.1,29.0,30.08,NW,305,10.0,17.0,66,0.00,,,0.00,weatherlink.com 1.10,2013-02-01 10:28:00,
2013-02-01 05:44:00,39.7,30.0,30.09,NW,314,3.0,15.0,68,0.00,,,0.00,weatherlink.com 1.10,2013-02-01 10:44:00,
2013-02-01 06:01:00,39.2,29.0,30.10,West,261,13.0,22.0,66,0.00,,,0.00,weatherlink.com 1.10,2013-02-01 11:01:00,
2013-02-01 06:17:00,38.7,27.0,30.11,NNW,337,7.0,19.0,64,0.00,,,0.00,weatherlink.com 1.10,2013-02-01 11:17:00,
2013-02-01 06:34:00,38.0,27.0,30.12,WNW,290,8.0,16.0,66,0.00,,,0.00,weatherlink.com 1.10,2013-02-01 11:34:00,
2013-02-01 06:51:00,37.4,26.0,30.13,NW,319,10.0,26.0,64,0.00,,,0.00,weatherlink.com 1.10,2013-02-01 11:51:00,
2013-02-01 07:00:00,34.5,14.3,30.19,West,273,8.0,23.0,43,0.00,,---,0.00,VWS V14.01,2013-02-01 12:00:00,
2013-02-01 07:07:00,36.8,23.0,30.15,WNW,298,6.0,18.0,58,0.00,,,0.00,weatherlink.com 1.10,2013-02-01 12:07:00,
2013-02-01 07:24:00,36.1,23.0,30.16,NW,304,5.0,18.0,60,0.00,,,0.00,weatherlink.com 1.10,2013-02-01 12:24:00,
2013-02-01 07:40:00,35.5,23.0,30.18,WNW,295,7.0,13.0,61,0.00,,,0.00,weatherlink.com 1.10,2013-02-01 12:40:00,
2013-02-01 07:57:00,34.7,17.0,30.18,NW,306,8.0,14.0,49,0.00,,,0.00,weatherlink.com 1.10,2013-02-01 12:57:00,
2013-02-01 08:13:00,34.1,11.0,30.20,West,273,5.0,16.0,39,0.00,,,0.00,weatherlink.com 1.10,2013-02-01 13:13:00,
2013-02-01 08:29:00,34.0,15.0,30.22,NNW,327,6.0,14.0,45,0.00,,,0.00,weatherlink.com 1.10,2013-02-01 13:29:00,
2013-02-01 08:45:00,33.8,9.0,30.23,WNW,287,5.0,16.0,36,0.00,,,0.00,weatherlink.com 1.10,2013-02-01 13:45:00,
2013-02-01 09:00:00,33.7,8.3,30.27,WNW,287,12.0,21.0,34,0.00,,---,0.00,VWS V14.01,2013-02-01 14:00:00,
2013-02-01 09:02:00,33.7,11.0,30.23,WSW,242,7.0,16.0,39,0.00,,,0.00,weatherlink.com 1.10,2013-02-01 14:02:00,
2013-02-01 09:19:00,33.5,11.0,30.25,West,276,3.0,13.0,39,0.00,,,0.00,weatherlink.com 1.10,2013-02-01 14:19:00,
2013-02-01 09:35:00,33.6,9.0,30.25,NNW,335,4.0,20.0,35,0.00,,,0.00,weatherlink.com 1.10,2013-02-01 14:35:00,
2013-02-01 09:51:00,33.7,8.0,30.26,NNW,328,9.0,17.0,34,0.00,,,0.00,weatherlink.com 1.10,2013-02-01 14:51:00,
2013-02-01 10:08:00,33.7,8.0,30.28,West,281,9.0,22.0,34,0.00,,,0.00,weatherlink.com 1.10,2013-02-01 15:08:00,
2013-02-01 10:25:00,34.3,8.0,30.29,NNW,331,7.0,17.0,34,0.00,,,0.00,weatherlink.com 1.10,2013-02-01 15:25:00,
2013-02-01 10:42:00,34.7,8.0,30.29,West,272,10.0,16.0,33,0.00,,,0.00,weatherlink.com 1.10,2013-02-01 15:42:00,
2013-02-01 10:58:00,35.3,9.0,30.29,NW,315,8.0,17.0,33,0.00,,,0.00,weatherlink.com 1.10,2013-02-01 15:58:00,
2013-02-01 11:00:00,37.6,7.5,30.30,NNW,331,4.0,21.0,28,0.00,,---,0.00,VWS V14.01,2013-02-01 16:00:00,
2013-02-01 11:14:00,35.9,6.0,30.30,WNW,289,10.0,21.0,29,0.00,,,0.00,weatherlink.com 1.10,2013-02-01 16:14:00,
2013-02-01 11:31:00,36.6,7.0,30.30,NNW,338,13.0,16.0,29,0.00,,,0.00,weatherlink.com 1.10,2013-02-01 16:31:00,
2013-02-01 11:47:00,37.4,7.0,30.30,WNW,290,5.0,13.0,28,0.00,,,0.00,weatherlink.com 1.10,2013-02-01 16:47:00,
2013-02-01 12:03:00,37.4,6.0,30.30,NW,313,13.0,14.0,27,0.00,,,0.00,weatherlink.com 1.10,2013-02-01 17:03:00,
2013-02-01 12:20:00,37.5,7.0,30.30,NW,313,6.0,19.0,28,0.00,,,0.00,weatherlink.com 1.10,2013-02-01 17:20:00,
2013-02-01 12:37:00,38.0,6.0,30.30,WSW,247,9.0,13.0,26,0.00,,,0.00,weatherlink.com 1.10,2013-02-01 17:37:00,
2013-02-01 12:53:00,38.2,2.0,30.30,WNW,289,10.0,23.0,22,0.00,,,0.00,weatherlink.com 1.10,2013-02-01 17:53:00,
2013-02-01 13:00:00,39.6,1.9,30.27,WNW,302,4.0,18.0,20,0.00,,---,0.00,VWS V14.01,2013-02-01 18:00:00,
2013-02-01 13:09:00,38.5,3.0,30.29,WNW,287,7.0,18.0,22,0.00,,,0.00,weatherlink.com 1.10,2013-02-01 18:09:00,
2013-02-01 13:25:00,38.8,2.0,30.29,NNW,339,6.0,24.0,21,0.00,,,0.00,weatherlink.com 1.10,2013-02-01 18:25:00,
2013-02-01 13:42:00,40.1,3.0,30.28,NW,325,10.0,19.0,21,0.00,,,0.00,weatherlink.com 1.10,2013-02-01 18:42:00,
2013-02-01 13:58:00,39.7,2.0,30.28,NNW,327,6.0,15.0,20,0.00,,,0.00,weatherlink.com 1.10,2013-02-01 18:58:00,
2013-02-01 14:14:00,40.6,1.0,30.27,NW,306,7.0,17.0,19,0.00,,,0.00,weatherlink.com 1.10,2013-02-01 19:14:00,
2013-02-01 14:32:00,41.0,3.0,30.28,West,262,4.0,16.0,20,0.00,,,0.00,weatherlink.com 1.10,2013-02-01 19:32:00,
2013-02-01 14:48:00,40.7,1.0,30.28,WNW,298,10.0,18.0,19,0.00,,,0.00,weatherlink.com 1.10,2013-02-01 19:48:00,
2013-02-01 15:00:00,41.5,1.2,30.28,NNW,337,4.0,18.0,18,0.00,,---,0.00,VWS V14.01,2013-02-01 20:00:00,
2013-02-01 15:04:00,41.3,3.0,30.28,NW,315,6.0,16.0,20,0.00,,,0.00,weatherlink.com 1.10,2013-02-01 20:04:00,
2013-02-01 15:20:00,41.8,3.0,30.28,NW,306,13.0,13.0,20,0.00,,,0.00,weatherlink.com 1.10,2013-02-01 20:20:00,
2013-02-01 15:37:00,41.5,1.0,30.28,WNW,303,7.0,15.0,18,0.00,,,0.00,weatherlink.com 1.10,2013-02-01 20:37:00,
2013-02-01 15:54:00,42.0,2.0,30.28,West,279,3.0,11.0,19,0.00,,,0.00,weatherlink.com 1.10,2013-02-01 20:54:00,
2013-02-01 16:10:00,41.4,2.0,30.28,WNW,283,5.0,13.0,19,0.00,,,0.00,weatherlink.com 1.10,2013-02-01 21:10:00,
2013-02-01 16:27:00,41.3,3.0,30.29,WNW,282,5.0,14.0,20,0.00,,,0.00,weatherlink.com 1.10,2013-02-01 21:27:00,
2013-02-01 16:43:00,40.8,1.0,30.29,NNW,327,7.0,12.0,19,0.00,,,0.00,weatherlink.com 1.10,2013-02-01 21:43:00,
2013-02-01 17:00:00,41.1,3.0,30.29,NW,309,4.0,10.0,20,0.00,,,0.00,weatherlink.com 1.10,2013-02-01 22:00:00,
2013-02-01 17:15:00,39.9,3.0,30.29,NW,320,4.0,11.0,21,0.00,,,0.00,weatherlink.com 1.10,2013-02-01 22:15:00,
2013-02-01 17:48:00,37.3,10.0,30.30,SW,233,2.0,11.0,32,0.00,,,0.00,weatherlink.com 1.10,2013-02-01 22:48:00,
2013-02-01 18:06:00,36.4,10.0,30.30,WNW,294,4.0,11.0,33,0.00,,,0.00,weatherlink.com 1.10,2013-02-01 23:06:00,
2013-02-01 18:21:00,35.5,10.0,30.31,West,264,11.0,11.0,34,0.00,,,0.00,weatherlink.com 1.10,2013-02-01 23:21:00,
2013-02-01 18:39:00,34.6,9.0,30.32,West,267,3.0,9.0,35,0.00,,,0.00,weatherlink.com 1.10,2013-02-01 23:39:00,
2013-02-01 18:55:00,33.9,9.0,30.32,WNW,284,5.0,11.0,36,0.00,,,0.00,weatherlink.com 1.10,2013-02-01 23:55:00,
2013-02-01 19:00:00,32.5,10.9,30.34,West,269,4.0,12.0,40,0.00,,---,0.00,VWS V14.01,2013-02-02 00:00:00,
2013-02-01 19:11:00,33.3,10.0,30.33,WNW,296,5.0,10.0,38,0.00,,,0.00,weatherlink.com 1.10,2013-02-02 00:11:00,
2013-02-01 19:28:00,32.9,10.0,30.34,WNW,302,8.0,12.0,38,0.00,,,0.00,weatherlink.com 1.10,2013-02-02 00:28:00,
2013-02-01 19:45:00,32.6,10.0,30.34,WNW,294,3.0,12.0,39,0.00,,,0.00,weatherlink.com 1.10,2013-02-02 00:45:00,
2013-02-01 20:01:00,32.4,10.0,30.34,West,281,2.0,10.0,40,0.00,,,0.00,weatherlink.com 1.10,2013-02-02 01:01:00,
2013-02-01 20:17:00,32.1,11.0,30.34,NW,314,1.0,8.0,42,0.00,,,0.00,weatherlink.com 1.10,2013-02-02 01:17:00,
2013-02-01 20:34:00,31.9,10.0,30.34,WNW,283,4.0,7.0,40,0.00,,,0.00,weatherlink.com 1.10,2013-02-02 01:34:00,
2013-02-01 20:50:00,31.5,10.0,30.35,NW,309,2.0,7.0,41,0.00,,,0.00,weatherlink.com 1.10,2013-02-02 01:50:00,
2013-02-01 21:00:00,29.2,11.0,30.34,NW,304,0.0,9.0,46,0.00,,---,0.00,VWS V14.01,2013-02-02 02:00:00,
2013-02-01 21:07:00,31.2,10.0,30.35,NW,317,2.0,5.0,42,0.00,,,0.00,weatherlink.com 1.10,2013-02-02 02:07:00,
2013-02-01 21:24:00,-999.0,-99.9,30.34,North,-999,-999.0,-999.0,-999,0.00,,,0.00,weatherlink.com 1.10,2013-02-02 02:24:00,
2013-02-01 21:41:00,29.8,10.0,30.34,NW,304,0.0,0.0,44,0.00,,,0.00,weatherlink.com 1.10,2013-02-02 02:41:00,
2013-02-01 21:56:00,29.2,11.0,30.34,NW,304,0.0,0.0,46,0.00,,,0.00,weatherlink.com 1.10,2013-02-02 02:56:00,
2013-02-01 22:14:00,29.2,11.0,30.35,NW,304,0.0,0.0,47,0.00,,,0.00,weatherlink.com 1.10,2013-02-02 03:14:00,
2013-02-01 22:30:00,29.1,11.0,30.35,WNW,303,0.0,3.0,46,0.00,,,0.00,weatherlink.com 1.10,2013-02-02 03:30:00,
2013-02-01 22:47:00,29.0,11.0,30.35,NW,323,0.0,0.0,48,0.00,,,0.00,weatherlink.com 1.10,2013-02-02 03:47:00,
2013-02-01 23:00:00,29.0,10.8,30.34,North,355,2.0,5.0,46,0.00,,---,0.00,VWS V14.01,2013-02-02 04:00:00,
2013-02-01 23:03:00,28.9,11.0,30.36,NW,310,1.0,3.0,47,0.00,,,0.00,weatherlink.com 1.10,2013-02-02 04:03:00,
2013-02-01 23:19:00,29.0,11.0,30.36,NW,321,2.0,5.0,47,0.00,,,0.00,weatherlink.com 1.10,2013-02-02 04:19:00,
2013-02-01 23:35:00,29.2,11.0,30.35,NNW,330,0.0,3.0,47,0.00,,,0.00,weatherlink.com 1.10,2013-02-02 04:35:00,
2013-02-01 23:52:00,29.0,10.0,30.34,NW,315,0.0,5.0,46,0.00,,,0.00,weatherlink.com 1.10,2013-02-02 04:52:00,